Location: *
(45.8589°N, 4.7139°E)
Time: 16:14:56
(UTC+00:00)

MOS 1 - Pass Details

Date: 09 April 2020
Orbit: 879 x 891 km, 99.2° (Epoch: 04 June)

Event Time Altitude Azimuth Distance (km) Brightness Sun altitude
Rises 19:11:09 0° 162° (SSE) 3,466 7.0 -9.2°
Reaches altitude 10° 19:13:31 10° 162° (SSE) 2,533 6.3 -9.6°
Maximum altitude 19:19:10 87° 76° (ENE) 891 4.3 -10.5°
Drops below altitude 10° 19:24:53 10° 346° (NNW) 2,558 7.3 -11.4°
Sets 19:27:17 0° 346° (NNW) 3,503 8.0 -11.8°
